Regional Weather Roundup
Issued by NWS

Home | Current Version | Previous Version | Graphics & Text | Print | Product List | Glossary On
Versions: 1 2 3 4 5 6 7 8 9 10 11 12 13 14 15 16 17 18 19 20 21 22 23 24 25 26 27 28 29 30 31 32 33 34 35 36 37 38 39 40 41 42 43 44 45 46 47 48 49 50
000
ASUS43 KLOT 051212
RWRIL

ILLINOIS REGIONAL WEATHER ROUNDUP
NATIONAL WEATHER SERVICE CHICAGO/ROMEOVILLE IL
700 AM CDT TUE MAY 05 2015

NOTE: "FAIR" INDICATES FEW OR NO CLOUDS BELOW 12,000 FEET WITH NO
SIGNIFICANT WEATHER AND/OR OBSTRUCTIONS TO VISIBILITY.

* THESE STATIONS ARE NOT UNDER NWS QUALITY CONTROL. THEY ALSO MAY NOT
  REPORT WEATHER SUCH AS PRECIPITATION OR FOG.

ILZ001-002-007-009-015-016-024-051300-
NORTHWEST ILLINOIS

CITY           SKY/WX    TMP DP  RH WIND       PRES   REMARKS
MOLINE         CLOUDY    58  56  93 E8        30.13R FOG
6HR MIN TEMP:  58; 6HR MAX TEMP:  62; 6HR PCP:  0.39;

STERLING*      CLOUDY    54  52  94 E12       30.14R
$$

ILZ003-004-008-010-011-017-018-051300-
NORTH CENTRAL ILLINOIS

CITY           SKY/WX    TMP DP  RH WIND       PRES   REMARKS
ROCKFORD       CLOUDY    53  49  86 E16G25    30.17F
6HR MIN TEMP:  51; 6HR MAX TEMP:  53; 6HR PCP:  0.84;

FREEPORT*      LGT RAIN  50  49  96 E12       30.18R
ROCHELLE*      LGT RAIN  53  52  96 E13       30.15R
DE KALB*       CLOUDY    52  50  94 E13       30.16F
PERU*          CLOUDY    55  54  98 E9        30.15R FOG
$$

ILZ005-006-012>014-019>023-051300-
NORTHEAST ILLINOIS

CITY           SKY/WX    TMP DP  RH WIND       PRES   REMARKS
CHICAGO-OHARE  LGT RAIN  50  49  96 NE9       30.20F FOG
6HR MIN TEMP:  49; 6HR MAX TEMP:  56; 6HR PCP:  0.93;

CHICAGO-MIDWAY LGT RAIN  53  50  89 N9        30.21R FOG
6HR MIN TEMP:  52; 6HR MAX TEMP:  60; 6HR PCP:  0.78;

AURORA         CLOUDY    54  50  86 E14       30.16F
6HR MIN TEMP:  51; 6HR MAX TEMP:  54; 6HR PCP:  0.66;

LANSING*       LGT RAIN  50  48  92 NE5       30.22R
JOLIET*        LGT RAIN  55  54  97 NE7       30.16F
WAUKEGAN       LGT RAIN  46  45  96 NE12      30.23S FOG
6HR MIN TEMP:  45; 6HR MAX TEMP:  52; 6HR PCP:  0.43;

DUPAGE AIRPORT LGT RAIN  53  51  93 E17       30.15F
6HR MIN TEMP:  50; 6HR MAX TEMP:  53; 6HR PCP:  0.65;

KANKAKEE*      CLOUDY    59  58  97 NE9       30.19F FOG
WHEELING       LGT RAIN  49  48  97 N8        30.23F FOG
6HR MIN TEMP:  48; 6HR MAX TEMP:  55; 6HR PCP:  0.95;

MORRIS*        CLOUDY    54  53  96 E9        30.14F FOG
ROMEOVILLE*    DRIZZLE   53  52  99 E13       30.17F
NORTHERLY ISL    N/A     50  48  93 N9          N/A
$$

LMZ740>746-051300-
SOUTHERN LAKE MICHIGAN

STATION/POSITION SKY/WX   TEMP    WIND        PRES    VSBY  WAVE
                          AIR SEA DIR/SP/G                  HT/PER
                          (F)     (DEG/KT/KT) (MB)    (MI)  (FT/S)
HARRISON CRIB              46     350/ 12/ 13   N/A
BURNHAM HARBOR             50     340/  8/ 13   N/A
CALUMET HARBOR             48     340/  7/ 10   N/A
BURNS HARBOR               46     330/ 11/ 12 1023.4
MICHIGAN CITY              48     320/  8/ 10   N/A
MICHIGAN CITY 6N           49 49   70/  6/  8   N/A           1
ST. JOSEPH                 51 49   30/  8/  8   N/A           1
$$

ILZ025>027-034>036-040-047-049-050-058-095>099-051300-
WEST-CENTRAL ILLINOIS

CITY           SKY/WX    TMP DP  RH WIND       PRES   REMARKS
QUINCY         PTSUNNY   64  61  90 SE5       30.14R
GALESBURG*     CLOUDY    61  60  98 SE6       30.14R FOG
MACOMB*        CLOUDY    62  62  99 SE6       30.17R FOG
JACKSONVILLE*  CLOUDY    64  58  81 SE5       30.15R
PITTSFIELD*    MOSUNNY   68  56  67 CALM      30.16R
$$

ILZ028>032-037-038-041>044-048-051>054-059>061-051300-
CENTRAL ILLINOIS

CITY           SKY/WX    TMP DP  RH WIND       PRES   REMARKS
PONTIAC        FOG       61  61  99 E12       30.17S VSB 1
BLOOMINGTON    CLOUDY    62  61  97 NE6       30.17R
DECATUR        CLOUDY    64  56  75 SW6       30.18R
PEORIA         CLOUDY    63  60  90 E5        30.14R FOG
6HR MIN TEMP:  63; 6HR MAX TEMP:  67; 6HR PCP: TRACE;

LACON*         CLOUDY    59  57  95 E8        30.14R FOG
LINCOLN*       CLOUDY    63  60  87 S3        30.14R
SPRINGFIELD    CLOUDY    65  57  75 N6        30.16R
6HR MIN TEMP:  61; 6HR MAX TEMP:  72;

TAYLORVILLE    CLOUDY    64  54  68 CALM      30.18R
$$

ILZ033-039-045-046-055>057-062-063-051300-
EAST-CENTRAL ILLINOIS

CITY           SKY/WX    TMP DP  RH WIND       PRES   REMARKS
CHAMPAIGN      CLOUDY    63  56  78 VRB5      30.18R
DANVILLE*      CLOUDY    61  58  90 CALM      30.16R
RANTOUL*       CLOUDY    65  58  79 SW3       30.18R
MATTOON        PTSUNNY   63  53  70 S6        30.18R
PARIS*         MOSUNNY   65  54  68 SW9       30.20R THUNDER
$$

ILZ079-100>102-051300-
SOUTHWEST ILLINOIS

CITY           SKY/WX    TMP DP  RH WIND       PRES   REMARKS
ALTON          PTSUNNY   63 N/A N/A S9        30.18R
BELLEVILLE     MOSUNNY   61  56  83 CALM      30.17R
CAHOKIA*       MOSUNNY   62  54  74 CALM      30.18R
SPARTA*        MOSUNNY   64  52  65 S10       30.20R
$$

ILZ064>066-069>071-074>076-080>082-084>086-088>090-092>094-051300-
SOUTH-CENTRAL ILLINOIS

CITY           SKY/WX    TMP DP  RH WIND       PRES   REMARKS
CARBONDALE     MOSUNNY   58  54  86 CALM      30.21R
6HR MIN TEMP:  54; 6HR MAX TEMP:  62;

CAIRO*         MOSUNNY   59  55  86 CALM      30.22R
EFFINGHAM*     PTSUNNY   64  52  65 CALM      30.21R
MT. VERNON     SUNNY    N/A N/A N/A CALM      30.21R
CENTRALIA*     MOSUNNY   64  51  64 S7        30.20R
SALEM*         MOSUNNY   66  53  63 S5        30.20R
METROPOLIS*    SUNNY     59  59  99 CALM      30.22R
$$

ILZ067-068-072-073-078-083-087-091-051300-
SOUTHEAST ILLINOIS

CITY           SKY/WX    TMP DP  RH WIND       PRES   REMARKS
LAWRENCEVILLE  MOSUNNY   62  55  77 S6        30.22R
FLORA*         MOSUNNY   62  55  75 S3        30.21R
FAIRFIELD*     MOSUNNY   64  55  73 S3        30.21R
HARRISBURG*    MOSUNNY   59  56  89 CALM      30.23R
ROBINSON*      MOSUNNY   63  53  71 S8        30.22R
CARMI*         MOSUNNY   60  52  74 SE5       30.22R
$$

ABBREVIATIONS USED IN REMARKS
   TC - TEMPERATURE IN CELSIUS
  WCI - WIND CHILL INDEX
   HX - HEAT INDEX
  VSB - VISIBILITY
$$




USA.gov is the U.S. government's official web portal to all federal, state and local government web resources and services.